Home > Weather > Chinle > Past weeks

Flag for USA Weather for the Past 2 Weeks in Chinle, Arizona, USA

Now
53 °F

Sunny.


Feels Like: 46 °F
Forecast: 38 / 58 °F
Wind: 30 mph from Southwest

Location: Window Rock Airport

Current Time: Apr 28, 2016 at 6:53:15 PM

Latest Report: Apr 28, 2016 at 5:53 PM


Visibility: 10 mi

Pressure: 29.55 "Hg (24.17 "Hg at 1678m altitude)

Humidity: 24%

Dew Point: 17 °F

Location of ChinleLocation

Historic Weather in Chinle — Graph

°F

Chinle Temperature Yesterday

Maximum temperature yesterday: 61 °F (at 3:53 PM)
Minimum temperature yesterday: 31 °F (at 6:53 AM)
Average temperature yesterday: 49 °F

High & Low Weather Summary for the Past Weeks

 TemperatureHumidityPressure
High77 °F (Apr 22, 3:53 PM)96% (Apr 18, 6:53 AM)30.15 "Hg (Apr 18, 6:53 AM)
Low24 °F (Apr 26, 6:53 AM)10% (Apr 22, 3:53 PM)29.43 "Hg (Apr 25, 2:53 PM)
Average49 °F45%29.80 "Hg
* Reported Apr 13 4:53 PM — Apr 28 4:53 PM, Chinle, Weather by CustomWeather, © 2016

Note: Actual official high and low records may vary slightly from our data, if they occured in-between our weather recording intervals... More about our weather records

Advertising

Chinle Weather History for the Previous 24 Hours

Scroll right to see more
 ConditionsComfort  
Time TempWeatherWind HumidityBarometerVisibility
4:53 PM
Thu, Apr 28
59 °FPassing clouds.28 mph16%29.53 "Hg10 mi
3:53 PM59 °FPassing clouds.29 mph12%29.51 "Hg10 mi
2:53 PM60 °FPassing clouds.28 mph13%29.50 "Hg10 mi
1:53 PM64 °FPassing clouds.33 mph14%29.46 "Hg10 mi
12:53 PM62 °FPassing clouds.26 mph18%29.47 "Hg10 mi
11:53 AM56 °FBroken clouds.16 mph27%29.53 "Hg10 mi
10:53 AM55 °FPartly sunny.21 mph29%29.54 "Hg10 mi
9:53 AM52 °FPartly sunny.14 mph34%29.55 "Hg10 mi
8:53 AM51 °FPassing clouds.10 mph32%29.55 "Hg10 mi
7:53 AM47 °FSunny.13 mph33%29.57 "Hg10 mi
6:53 AM46 °FPartly cloudy.14 mph34%29.55 "Hg10 mi
5:53 AM48 °FMostly cloudy.13 mph34%29.52 "Hg10 mi
4:53 AM41 °FMostly cloudy.No wind53%29.55 "Hg10 mi
3:53 AM44 °FOvercast.3 mph47%29.53 "Hg10 mi
2:53 AM45 °FPassing clouds.No wind44%29.55 "Hg10 mi
1:53 AM47 °FPassing clouds.9 mph42%29.58 "Hg10 mi
12:53 AM50 °FPassing clouds.17 mph30%29.58 "Hg10 mi
11:53 PM
Wed, Apr 27
50 °FPassing clouds.8 mph30%29.57 "Hg10 mi
10:53 PM53 °FOvercast.13 mph25%29.57 "Hg10 mi
9:53 PM55 °FOvercast.13 mph25%29.58 "Hg10 mi
8:53 PM56 °FOvercast.N/A28%29.58 "Hg10 mi
7:53 PM57 °FOvercast.16 mph25%29.58 "Hg10 mi
6:53 PM58 °FOvercast.7 mph27%29.62 "Hg10 mi
Weather by CustomWeather, © 2016

See weather overviewHow to use our weather pages